This is the latest recevied weather packets stored in our database for station/object K2ATL. If no packets are shown the sender has not sent any weather packets the latest 10 day(s).
| Time | Temp. | Humidity | Pressure | Rain* | Wind** | Luminosity | Snow |
|---|---|---|---|---|---|---|---|
| 1787606762 | 30.56° C | 46% | 1102.3 hPa | 0 mm | - | 504 W/m² | - |
| 1787606456 | 29.44° C | 49% | 1102.5 hPa | 0 mm | - | 536 W/m² | - |
| 1787606156 | 28.89° C | 50% | 1102.4 hPa | 0 mm | - | 548 W/m² | - |
| 1787605855 | 29.44° C | 46% | 1102.4 hPa | 0 mm | - | 571 W/m² | - |
| 1787605554 | 27.78° C | 52% | 1102.5 hPa | 0 mm | - | 588 W/m² | - |
| 1787605251 | 26.67° C | 56% | 1102.5 hPa | 0 mm | - | 604 W/m² | - |
| 1787604950 | 27.78° C | 50% | 1102.4 hPa | 0 mm | - | 624 W/m² | - |
| 1787604649 | 27.22° C | 56% | 1102.3 hPa | 0 mm | - | 645 W/m² | - |
| 1787604349 | 27.78° C | 55% | 1102.4 hPa | 0 mm | - | 668 W/m² | - |
| 1787604045 | 27.78° C | 53% | 1102.3 hPa | 0 mm | - | 681 W/m² | - |
| 1787603745 | 27.78° C | 54% | 1102.2 hPa | 0 mm | - | 700 W/m² | - |
| 1787603440 | 27.22° C | 51% | 1102.6 hPa | 0 mm | - | 713 W/m² | - |
| 1787603136 | 27.78° C | 57% | 1102.5 hPa | 0 mm | - | 729 W/m² | - |
| 1787602832 | 27.22° C | 55% | 1102.5 hPa | 0 mm | - | 743 W/m² | - |
| 1787602532 | 27.78° C | 56% | 1102.6 hPa | 0 mm | - | 756 W/m² | - |
| 1787602227 | 27.78° C | 53% | 1102.4 hPa | 0 mm | - | 768 W/m² | - |
| 1787601926 | 27.78° C | 55% | 1102.8 hPa | 0 mm | - | 777 W/m² | - |
| 1787601622 | 26.67° C | 60% | 1102.7 hPa | 0 mm | - | 796 W/m² | - |
| 1787601317 | 27.22° C | 52% | 1102.7 hPa | 0 mm | - | 806 W/m² | - |
| 1787601015 | 27.22° C | 64% | 1102.8 hPa | 0 mm | - | 817 W/m² | - |
| 1787600711 | 27.22° C | 55% | 1103 hPa | 0 mm | - | 828 W/m² | - |
| 1787600406 | 27.22° C | 55% | 1103.1 hPa | 0 mm | - | 840 W/m² | - |
| 1787600102 | 26.67° C | 59% | 1102.8 hPa | 0 mm | - | 844 W/m² | - |
| 1787599798 | 27.22° C | 58% | 1103 hPa | 0 mm | - | 856 W/m² | - |
| 1787599494 | 27.22° C | 57% | 1103.3 hPa | 0 mm | - | 865 W/m² | - |
* Rain latest hour (hover to see other rain measurements)
** Current wind speed in m/s (hover to see current wind gust speed)